Wind_Speed
84 75 85 86 85 82 83 79 75 73 68 64 61 60 59 60 56 54 51 44 42 42 41 39 44 40 37 34 41 41 41 42 39 34 31 29 26 24 21 20 18 18 18 19 17
77 79 76 80 79 78 74 75 72 72 65 65 60 59 59 61 60 56 54 53 50 45 42 37 40 42 31 36 42 46 44 43 43 39 35 32 30 26 24 22 21 20 17 18 18
69 70 78 80 74 75 71 66 66 63 59 60 58 56 58 61 61 55 56 51 50 49 45 42 44 41 39 37 33 46 45 46 47 43 38 34 32 29 26 24 23 22 20 20 19
59 63 64 72 76 72 72 66 61 61 56 55 53 54 58 59 60 57 55 50 50 52 51 47 44 44 36 38 37 35 42 47 48 46 40 35 35 32 28 27 25 24 21 19 18
60 61 63 63 71 66 72 67 62 59 58 56 50 48 53 58 61 53 52 52 48 50 54 54 50 41 36 36 35 32 47 49 49 47 43 40 39 37 32 31 29 27 24 22 19
64 61 65 57 61 64 63 63 61 61 57 56 54 53 52 54 56 54 50 47 45 46 49 52 44 44 40 39 35 32 46 51 52 51 44 41 43 39 36 34 32 31 27 24 23
60 64 61 60 60 60 59 61 60 58 55 53 52 49 48 52 53 50 47 46 43 44 43 44 45 39 39 38 36 21 39 55 52 49 47 45 47 41 39 37 36 34 30 28 26
47 64 59 63 62 61 61 58 56 54 52 50 50 48 50 47 49 51 46 44 43 42 44 44 43 41 43 44 36 28 34 61 49 47 51 49 45 42 40 39 37 35 31 30 28
55 60 60 64 65 66 64 60 55 56 56 53 49 48 46 45 46 49 50 41 40 41 41 41 43 45 45 46 41 30 33 51 54 54 55 52 46 46 42 40 37 35 33 31 29
50 45 64 65 67 68 65 63 63 63 61 56 55 53 43 43 43 46 51 46 44 42 41 42 42 46 43 44 43 33 37 41 59 59 57 52 46 46 43 41 38 38 34 31 29
48 44 60 66 69 70 70 70 68 60 49 48 48 48 49 48 45 45 46 47 47 46 44 40 43 39 42 45 47 41 36 42 58 56 54 53 46 48 46 43 41 38 34 34 30
59 44 66 67 69 67 66 61 53 46 52 52 54 52 52 52 49 49 48 49 48 47 49 44 39 43 47 53 48 42 40 46 57 53 54 52 48 50 50 46 42 41 38 36 34
43 53 68 67 63 63 60 60 58 52 52 54 58 57 55 53 53 51 49 47 47 47 48 43 41 50 53 54 48 49 43 54 61 53 52 54 53 54 50 47 44 44 41 39 35
55 55 50 59 60 59 64 63 59 54 53 54 57 55 54 54 56 53 51 49 48 47 47 46 49 52 56 52 51 51 46 55 57 58 58 56 57 55 53 51 50 46 45 41 38
50 45 43 42 50 57 54 60 61 55 55 56 53 53 52 51 51 51 50 50 49 48 49 49 49 51 53 52 55 54 58 61 61 56 55 58 60 57 56 58 53 47 45 44 40
46 48 49 51 53 52 58 60 56 57 59 58 57 53 54 52 52 48 48 51 51 52 52 52 53 54 50 55 59 64 59 62 59 58 58 57 60 58 58 57 53 51 47 46 42
50 49 47 47 51 55 59 60 58 52 55 61 58 56 56 54 53 51 49 51 51 52 53 53 51 51 53 53 51 54 54 57 66 60 62 56 60 58 60 53 52 53 48 46 42
59 54 49 50 54 54 53 56 55 57 46 59 60 57 57 58 55 50 50 47 47 48 50 55 53 53 51 54 55 58 56 60 64 67 61 58 64 63 57 52 49 48 46 45 44
59 54 51 54 57 56 56 52 54 53 55 56 64 60 62 55 53 50 49 46 45 47 51 52 51 51 54 55 57 54 60 55 55 58 53 54 58 56 53 52 50 46 46 44 45
60 58 52 56 59 55 55 54 49 52 55 53 61 61 60 56 56 54 50 48 47 44 45 45 44 47 47 47 48 48 43 46 58 55 57 57 56 57 49 46 45 43 42 44 48
64 59 56 59 58 59 55 55 53 52 56 57 58 58 57 56 55 56 54 50 47 45 43 44 45 46 46 50 53 49 48 46 43 48 57 54 59 51 42 42 41 41 41 44 46
71 63 57 57 59 55 55 56 50 53 53 60 58 57 57 56 55 55 53 48 45 45 45 43 42 39 42 46 48 47 44 41 41 44 51 48 48 44 39 39 40 41 41 42 41
76 69 66 58 57 56 56 55 56 53 56 57 56 55 57 57 53 53 49 47 46 47 47 42 40 39 41 40 41 43 46 48 51 42 43 45 51 44 43 41 37 36 35 35 36
77 74 69 59 57 54 56 57 57 63 62 57 55 54 53 49 50 50 50 49 46 48 47 48 46 42 46 43 42 45 39 39 40 47 52 54 48 45 40 39 40 38 35 35 36
78 74 56 58 55 50 51 55 60 62 62 61 59 56 54 50 47 50 49 47 48 47 47 47 48 49 49 47 44 43 45 38 39 42 45 43 46 41 42 40 42 43 44 40 38
76 69 62 54 51 48 46 54 56 58 57 61 57 56 53 50 46 44 44 47 47 47 46 44 47 44 43 48 46 47 48 51 52 45 50 51 48 40 41 44 46 47 44 40 42
72 69 61 58 51 46 41 42 47 55 55 56 55 53 50 47 46 34 32 38 42 43 44 42 41 40 40 41 45 45 43 46 51 53 52 51 43 46 45 44 44 43 44 46 49
Wind_Direction
231 225 220 218 217 216 219 219 222 223 224 223 222 221 218 219 221 221 220 213 214 219 223 220 224 236 252 238 219 210 203 203 207 195 198 192 193 185 176 166 163 168 161 152 147
229 230 226 223 221 221 220 222 224 223 225 224 223 220 219 219 222 221 220 219 220 223 220 223 226 231 238 248 228 212 205 204 206 200 198 196 198 190 187 177 176 177 165 162 152
222 223 231 230 228 224 223 223 226 226 226 225 224 221 220 220 223 224 223 221 220 221 218 223 227 219 222 238 224 221 207 204 210 203 197 202 204 196 196 186 185 183 176 172 163
204 213 220 227 229 227 226 225 224 226 225 227 225 222 220 222 224 223 225 223 221 220 220 219 220 219 228 230 252 244 210 209 211 208 199 204 208 203 200 200 192 195 183 187 178
208 216 218 221 228 227 226 227 225 225 227 228 224 222 222 221 224 225 226 226 225 223 224 225 227 231 224 234 235 252 208 211 213 211 205 205 210 206 201 207 199 203 195 193 190
197 207 215 213 218 220 221 222 223 225 227 228 231 232 227 226 225 227 227 227 227 224 227 229 232 231 228 236 225 238 215 214 212 212 211 209 215 209 205 212 208 208 202 202 203
193 201 209 210 207 210 211 216 217 220 222 223 227 228 228 229 227 230 232 227 226 225 226 228 229 226 225 226 222 234 231 213 214 212 214 210 218 213 208 211 216 212 210 209 211
212 201 206 202 198 201 199 204 207 212 213 217 219 222 224 230 226 230 234 235 230 227 226 227 224 222 221 223 225 224 243 208 211 213 216 218 218 220 215 214 215 220 214 219 217
197 197 201 194 194 195 193 195 200 201 203 204 211 215 216 226 226 226 233 234 233 232 229 228 222 218 222 222 216 218 245 225 209 209 218 217 217 221 220 218 217 219 221 220 222
192 205 194 191 192 193 193 193 195 198 199 198 199 206 213 216 222 224 226 232 236 235 234 230 228 222 214 221 222 222 230 234 217 217 221 218 213 221 222 223 221 220 221 223 222
190 203 194 190 194 194 194 193 192 192 195 211 219 217 214 209 214 221 224 229 233 236 239 235 231 227 219 219 221 216 226 232 217 221 222 223 213 221 220 221 223 226 221 223 221
196 197 191 193 195 195 196 197 196 208 206 200 203 208 209 210 212 213 220 225 228 233 234 231 231 226 216 212 213 220 220 228 217 218 222 225 219 220 222 220 219 225 224 224 223
193 201 194 194 195 194 196 198 199 202 206 208 202 206 206 211 212 211 215 222 224 229 232 230 225 221 218 214 219 223 219 214 213 218 223 223 220 221 221 223 222 224 225 226 227
188 181 182 194 192 196 199 198 200 201 207 208 213 211 211 210 211 213 213 215 221 224 226 225 224 223 219 216 218 222 215 211 214 218 221 223 222 220 219 224 225 224 227 227 230
184 188 188 187 193 198 203 202 201 201 205 205 209 214 216 215 215 213 217 215 215 217 223 222 220 224 223 217 218 223 213 212 218 221 222 223 226 216 219 226 227 225 230 230 231
181 186 186 188 194 197 201 201 206 201 206 209 207 212 215 217 214 215 218 216 214 212 216 220 217 222 222 220 224 211 211 215 220 220 225 223 227 220 223 225 227 228 228 232 232
188 191 188 192 193 195 203 202 207 209 216 213 209 211 213 217 217 215 214 216 216 214 215 215 217 218 219 214 210 212 213 220 222 217 222 223 226 223 224 226 228 232 232 233 237
191 190 195 190 198 198 200 203 211 214 217 211 211 211 214 213 214 216 211 214 216 217 219 214 214 218 218 216 220 214 214 221 222 217 219 222 226 226 227 230 230 235 237 239 242
186 194 198 194 198 202 207 212 216 221 220 217 213 212 212 213 214 211 213 215 214 216 217 217 217 216 214 213 211 216 218 220 223 222 226 228 229 232 230 233 233 235 238 241 246
192 196 196 197 199 204 207 209 216 215 215 218 217 215 212 216 211 211 213 212 213 213 216 215 215 212 215 213 211 219 224 229 221 223 222 225 227 229 227 231 236 236 237 240 244
200 197 195 198 202 204 209 209 215 217 215 211 215 217 216 217 216 214 212 211 213 211 210 215 215 216 217 215 216 211 213 218 227 234 233 236 233 230 236 237 241 241 238 239 241
192 199 196 201 204 208 208 211 213 220 217 214 216 219 217 217 216 216 215 213 214 212 210 212 212 215 227 225 224 219 220 228 229 236 236 236 235 234 236 239 238 238 241 242 242
193 201 202 204 207 206 209 214 211 217 217 212 215 214 212 214 218 217 220 215 213 212 212 210 212 215 215 218 226 225 226 227 224 225 230 238 233 236 237 240 238 235 238 246 246
194 195 202 206 214 219 219 219 210 212 214 210 210 208 210 213 215 219 218 217 213 216 218 219 214 220 229 237 234 228 221 227 230 231 232 234 236 236 240 243 244 247 248 248 249
197 200 202 201 203 208 217 217 212 210 211 210 211 212 213 212 213 217 215 219 219 219 222 227 228 223 226 230 231 230 222 222 229 233 234 234 240 237 242 243 245 248 248 243 238
199 208 201 205 208 210 209 209 215 213 215 212 212 211 209 211 215 222 220 219 223 220 223 225 229 226 230 237 232 229 228 218 225 225 236 237 234 229 229 233 236 238 238 242 244
202 201 203 204 208 209 207 206 213 217 221 218 218 211 211 214 210 206 206 217 225 227 227 233 231 227 232 233 237 237 235 234 235 236 240 243 241 234 235 239 243 244 243 245 247
Height
5623 5634 5645 5656 5668 5678 5690 5700 5709 5717 5727 5737 5745 5754 5764 5771 5778 5786 5794 5800 5804 5808 5814 5820 5824 5829 5834 5838 5840 5845 5852 5853 5859 5861 5867 5870 5874 5877 5878 5879 5881 5882 5884 5886 5887
5611 5624 5636 5646 5659 5670 5680 5690 5700 5708 5719 5729 5739 5747 5755 5763 5771 5779 5784 5791 5798 5802 5809 5814 5819 5823 5829 5832 5836 5840 5847 5852 5853 5858 5861 5866 5871 5874 5876 5878 5879 5882 5884 5887 5886
5600 5613 5626 5638 5651 5662 5672 5682 5693 5702 5711 5720 5731 5739 5747 5756 5764 5769 5777 5783 5791 5796 5802 5808 5813 5817 5823 5828 5832 5836 5844 5846 5849 5854 5858 5862 5869 5873 5874 5877 5879 5880 5882 5884 5885
5592 5602 5615 5629 5641 5654 5666 5676 5686 5696 5704 5714 5723 5730 5740 5749 5757 5762 5770 5776 5783 5789 5796 5802 5807 5812 5817 5824 5828 5833 5839 5843 5846 5851 5854 5859 5866 5870 5873 5875 5878 5879 5880 5885 5886
5584 5594 5606 5619 5632 5645 5657 5668 5679 5688 5698 5708 5715 5724 5733 5741 5749 5756 5763 5769 5776 5783 5790 5794 5801 5806 5809 5817 5823 5828 5835 5837 5841 5848 5853 5854 5859 5865 5868 5872 5876 5877 5878 5881 5884
5576 5585 5597 5609 5622 5635 5648 5659 5670 5681 5692 5700 5708 5719 5727 5734 5742 5750 5757 5764 5770 5778 5782 5788 5793 5800 5803 5810 5817 5822 5828 5833 5834 5842 5849 5852 5855 5861 5864 5868 5872 5875 5876 5879 5881
5568 5576 5588 5601 5614 5626 5638 5650 5661 5672 5682 5691 5702 5711 5717 5726 5737 5745 5751 5757 5763 5770 5776 5780 5786 5793 5801 5804 5808 5813 5820 5826 5829 5838 5844 5847 5850 5857 5860 5863 5868 5871 5873 5876 5879
5558 5567 5579 5591 5605 5616 5627 5640 5652 5664 5673 5682 5692 5702 5707 5721 5732 5739 5745 5752 5758 5765 5770 5774 5780 5786 5794 5798 5800 5805 5815 5818 5824 5830 5837 5842 5849 5854 5857 5860 5863 5867 5870 5874 5876
5552 5559 5573 5583 5597 5608 5619 5632 5645 5653 5662 5673 5685 5692 5702 5714 5725 5731 5738 5744 5750 5757 5765 5769 5774 5779 5788 5792 5797 5800 5811 5816 5820 5826 5827 5833 5843 5847 5853 5858 5860 5863 5866 5869 5873
5545 5554 5564 5576 5589 5600 5612 5624 5633 5641 5650 5665 5674 5684 5698 5708 5715 5723 5729 5736 5742 5750 5757 5762 5769 5774 5778 5787 5794 5797 5803 5807 5813 5818 5822 5828 5836 5842 5850 5854 5857 5860 5861 5866 5869
5539 5548 5558 5570 5582 5591 5601 5612 5622 5632 5652 5668 5676 5679 5688 5695 5703 5713 5721 5728 5734 5742 5751 5756 5762 5771 5775 5781 5786 5790 5795 5801 5808 5813 5818 5824 5829 5836 5843 5846 5851 5857 5859 5862 5864
5530 5541 5554 5565 5575 5588 5601 5616 5630 5642 5642 5652 5663 5670 5678 5688 5696 5702 5711 5720 5727 5737 5743 5751 5761 5765 5765 5772 5778 5782 5786 5793 5800 5805 5811 5818 5825 5828 5833 5839 5845 5850 5853 5858 5859
5525 5537 5548 5560 5570 5584 5599 5614 5623 5632 5641 5652 5651 5659 5668 5679 5688 5696 5704 5712 5719 5727 5736 5746 5754 5752 5755 5763 5770 5777 5780 5785 5793 5798 5802 5809 5814 5820 5825 5831 5836 5842 5847 5852 5856
5521 5533 5543 5553 5566 5579 5592 5603 5614 5623 5632 5640 5647 5654 5663 5670 5677 5685 5693 5702 5711 5720 5728 5734 5740 5745 5750 5756 5763 5769 5774 5778 5785 5790 5794 5800 5805 5811 5817 5821 5827 5834 5838 5845 5849
5517 5529 5539 5554 5563 5574 5589 5595 5603 5612 5617 5630 5638 5646 5653 5663 5672 5679 5686 5694 5701 5710 5720 5729 5732 5736 5743 5753 5755 5763 5764 5770 5775 5781 5785 5791 5796 5806 5808 5814 5821 5829 5833 5837 5840
5512 5523 5534 5544 5559 5570 5580 5588 5594 5600 5607 5618 5628 5637 5649 5658 5666 5670 5680 5687 5693 5698 5708 5716 5721 5727 5738 5740 5745 5750 5754 5760 5766 5771 5773 5785 5791 5800 5803 5810 5815 5820 5823 5827 5832
5508 5519 5531 5542 5551 5559 5568 5576 5585 5592 5604 5613 5623 5632 5642 5650 5657 5663 5671 5679 5687 5692 5701 5708 5713 5722 5726 5728 5732 5739 5747 5752 5756 5757 5768 5777 5780 5791 5796 5802 5809 5812 5817 5822 5824
5504 5514 5525 5537 5542 5555 5560 5570 5577 5587 5595 5604 5617 5626 5634 5641 5648 5657 5661 5670 5680 5687 5692 5697 5705 5713 5718 5723 5731 5732 5739 5740 5743 5750 5760 5765 5768 5777 5789 5795 5803 5806 5810 5814 5817
5495 5505 5517 5527 5537 5546 5554 5561 5572 5581 5589 5600 5609 5616 5624 5633 5643 5648 5657 5667 5672 5678 5686 5692 5699 5705 5708 5715 5721 5723 5727 5738 5741 5745 5753 5759 5766 5773 5784 5790 5796 5799 5801 5805 5808
5489 5502 5511 5522 5531 5538 5548 5559 5567 5574 5582 5592 5601 5611 5618 5629 5635 5642 5652 5661 5665 5672 5679 5687 5692 5697 5703 5709 5711 5718 5729 5728 5731 5738 5744 5749 5757 5764 5775 5783 5787 5791 5793 5796 5798
5481 5489 5501 5512 5523 5532 5541 5550 5558 5565 5576 5587 5596 5606 5615 5623 5632 5637 5646 5653 5659 5665 5671 5678 5684 5692 5696 5698 5705 5711 5713 5718 5726 5733 5738 5744 5749 5761 5769 5775 5778 5781 5784 5787 5788
5471 5480 5494 5505 5516 5527 5534 5543 5551 5560 5571 5580 5590 5600 5610 5619 5625 5632 5639 5650 5656 5660 5664 5671 5677 5683 5689 5694 5701 5703 5709 5716 5722 5728 5731 5736 5744 5754 5761 5765 5769 5772 5774 5776 5779
5464 5476 5487 5498 5506 5518 5527 5535 5544 5554 5564 5575 5585 5592 5602 5609 5618 5626 5635 5644 5649 5653 5659 5666 5671 5677 5682 5689 5692 5696 5703 5708 5712 5719 5723 5732 5739 5746 5752 5756 5760 5762 5764 5767 5769
5455 5464 5476 5493 5503 5514 5522 5529 5537 5547 5556 5567 5578 5587 5594 5603 5612 5620 5628 5635 5642 5648 5655 5659 5665 5673 5677 5685 5689 5692 5697 5702 5706 5711 5718 5721 5732 5739 5745 5747 5749 5751 5754 5758 5760
5448 5459 5478 5482 5494 5504 5513 5524 5531 5539 5549 5561 5570 5580 5590 5598 5606 5612 5621 5629 5635 5642 5647 5652 5658 5664 5670 5676 5680 5685 5691 5696 5699 5706 5709 5721 5722 5733 5734 5737 5738 5742 5746 5748 5751
5444 5456 5472 5485 5491 5499 5504 5511 5524 5532 5543 5553 5564 5575 5584 5593 5603 5610 5616 5623 5628 5634 5639 5645 5650 5657 5662 5667 5671 5675 5680 5684 5690 5696 5700 5703 5711 5719 5720 5722 5727 5730 5734 5738 5741
5439 5454 5466 5475 5483 5492 5501 5507 5516 5529 5541 5552 5562 5570 5579 5588 5596 5604 5609 5617 5624 5628 5634 5639 5644 5651 5654 5659 5662 5664 5673 5679 5684 5686 5692 5693 5707 5707 5712 5715 5718 5719 5722 5727 5730